Regional Weather Roundup
Issued by NWS

Home | Current Version | Previous Version | Graphics & Text | Print | Product List | Glossary On
Versions: 1 2 3 4 5 6 7 8 9 10 11 12 13 14 15 16 17 18 19 20 21 22 23 24 25 26 27 28 29 30 31 32 33 34 35 36 37 38 39 40 41 42 43 44 45 46 47 48 49 50
000
ASUS45 KCYS 232110
RWRWY

WYOMING REGIONAL WEATHER ROUNDUP
NATIONAL WEATHER SERVICE CHEYENNE WY
300 PM MDT WED JUL 23 2014

NOTE:  "FAIR" INDICATES FEW OR NO CLOUDS BELOW 12,000 FEET
WITH NO SIGNIFICANT WEATHER AND/OR OBSTRUCTIONS TO VISIBILITY.

WYZ001-232200-
YELLOWSTONE NATIONAL PARK

CITY           SKY/WX    TMP DP  RH WIND       PRES   REMARKS
LK YELLOWSTONE   N/A     78  30  17 VRB6G17   30.41S
W YELLOWSTONE  NOT AVBL

$$
WYZ002>013-054>058-071-098>099-232200-
NORTHERN WYOMING

CITY           SKY/WX    TMP DP  RH WIND       PRES   REMARKS
JACKSON        SUNNY     86  30  13 S14       30.26F
CODY           NOT AVBL
GREYBULL       SUNNY     98  45  16 VRB5      30.01F HX  94
WORLAND        SUNNY    102  35  10 S12G20    30.02F HX  96
SHERIDAN       SUNNY     94  61  33 SE15      30.04F HX  94
BUFFALO        MOSUNNY   92  56  29 SE12      30.13F HX  90
GILLETTE       SUNNY     92  59  33 SE23G32   30.12F HX  91
HULETT         FAIR      86  64  48 MISG      30.16
NEWCASTLE      FAIR      90  52  27 MISG      30.18

$$
WYZ014>020-022>026-101>103-232200-
CENTRAL WYOMING

CITY           SKY/WX    TMP DP  RH WIND       PRES   REMARKS
BIG PINEY      SUNNY     90  36  14 W15       30.33F
PINEDALE       PTCLDY    86  32  14 W10G24    30.34S
DUBOIS         FAIR      86  30  13 W18G30    30.31S
LANDER         SUNNY     96  43  16 NE7       30.15  HX  92
RIVERTON       SUNNY     92  45  19 MISG      30.16F
CASPER         SUNNY     95  36  12 SW9       30.15F HX  90
DOUGLAS        SUNNY     87  59  38 SE21G28   30.18F

$$
WYZ021-027>030-104>119-232200-
SOUTHERN WYOMING

CITY           SKY/WX    TMP DP  RH WIND       PRES   REMARKS
EVANSTON       MOSUNNY   90  39  16 SW14G22   30.33F
KEMMERER       PTCLDY    88  32  13 SW21G33   30.34F
FORT BRIDGER   FAIR      94  34  12 SW22G31   30.34F
ROCK SPRINGS   MOSUNNY   91  25   9 SW12G23   30.29F
DIXON          FAIR      95  29   9 W8G21     30.33F
RAWLINS        MOSUNNY   95  19   6 SW22G32   30.31F
SARATOGA       FAIR      91  28  10 SW16      30.35F
LARAMIE        MOSUNNY   81  53  37 S15       30.39R
CHEYENNE       SUNNY     81  59  47 S24G33    30.34F
TORRINGTON     SUNNY     90  63  40 S17       30.18F HX  91
PINE BLUFFS    FAIR      84  61  45 S18G24    30.28F

$$


USA.gov is the U.S. government's official web portal to all federal, state and local government web resources and services.